Regional Weather Roundup
Issued by NWS

Home | Current Version | Previous Version | Graphics & Text | Print | Product List | Glossary Off
Versions: 1 2 3 4 5 6 7 8 9 10 11 12 13 14 15 16 17 18 19 20 21 22 23 24 25 26 27 28 29 30 31 32 33 34 35 36 37 38 39 40 41 42 43 44 45 46 47 48 49 50

000
ASUS43 KDMX 050206
RWRIA

WEATHER ROUNDUP FOR IOWA
NATIONAL WEATHER SERVICE DES MOINES IA
800 PM CST SUN DEC 04 2016

NOTE: "FAIR" INDICATES FEW OR NO CLOUDS BELOW 12,000 FEET WITH NO
SIGNIFICANT WEATHER AND/OR OBSTRUCTIONS TO VISIBILITY.

* - THESE STATIONS ARE NOT NWS STATIONS...THUS NOT UNDER NWS
QUALITY CONTROL.  THEY ALSO DO NOT REPORT WEATHER SUCH
AS PRECIPITATION OR FOG.

IAZ001>003-012>014-020>022-031>034-043>046-050300-
   NORTHWEST IOWA

CITY           SKY/WX    TMP DP  RH WIND       PRES   REMARKS
CARROLL *      CLEAR     36  34  93 SW18      29.86F WCI  25
CHEROKEE *     CLEAR     32  32 100 S5        29.84S WCI  27
DENISON *      CLEAR     34  32  93 S6        29.86S WCI  29
LE MARS *      CLEAR     30  28  93 S7        29.84S WCI  23
ORANGE CITY *  CLEAR     34  30  86 CALM      29.82S
SHELDON *      CLEAR     34  32  93 SW5       29.81S WCI  30
SIOUX CITY     CLEAR     34  31  88 SE7       29.85S WCI  28
SPENCER        CLEAR     32  29  88 SW10      29.82R WCI  24
STORM LAKE *   CLEAR     34  32  93 SW7       29.84S WCI  28
$$

IAZ055>058-069>071-079>083-090>094-050300-
   SOUTHWEST IOWA

CITY           SKY/WX    TMP DP  RH WIND       PRES   REMARKS
ATLANTIC *     CLEAR     32  32 100 S5        29.91S FOG     WCI  27
AUDUBON *      CLEAR     34  30  86 S7        29.90S WCI  28
CLARINDA *       N/A     32  32 100 S5        29.96S FOG     WCI  27
COUNCIL BLFS * CLEAR     34  32  93 SW10      29.90F WCI  26
CRESTON *      PTCLDY    34  34 100 SW10      29.94S WCI  26
HARLAN  *      CLEAR     32  32 100 SW8       29.92F WCI  25
LAMONI         MOCLDY    34  33  96 SW8       29.94F WCI  27
RED OAK *      CLEAR     32  32 100 S6        29.93S WCI  26
SHENANDOAH *   CLEAR     34  32  93 CALM      29.94F
$$

IAZ047>049-059>061-072>074-084-050300-
   CENTRAL IOWA

CITY           SKY/WX    TMP DP  RH WIND       PRES   REMARKS
AMES           CLEAR     30  30 100 S6        29.90R FOG     WCI  24
ANKENY *       CLEAR     36 N/A N/A SW9       29.92S WCI  29
BOONE *        CLEAR     32  32 100 SW9       29.88R FOG     WCI  24
CHARITON *       N/A     36  34  93 SW10      29.93S WCI  28
DES MOINES     CLEAR     34  31  88 S7        29.92R WCI  28
GRINNELL*      CLOUDY    34  32  93 SW12      29.91S WCI  25
KNOXVILLE *    MOCLDY    36  32  87 SW10      29.92R WCI  28
MARSHALLTOWN   CLOUDY    33  31  92 S5        29.90S FOG     WCI  29
NEWTON *       MOCLDY    34  32  93 SW10      29.90S WCI  26
PELLA *        PTCLDY    36  33  90 SW9       29.94S WCI  29
PERRY *          N/A     33  33 100 S6        29.89S FOG     WCI  27
$$

IAZ004>006-015-016-023>025-035-036-050300-
   NORTH CENTRAL IOWA

CITY           SKY/WX    TMP DP  RH WIND       PRES   REMARKS
ALGONA *       CLEAR     34  34 100 SW12      29.83R WCI  25
CLARION *      CLEAR     32  32 100 S9        29.86R FOG     WCI  24
ESTHERVILLE    CLEAR     32  31  96 SW6       29.81R WCI  26
FORT DODGE *   CLEAR     30  28  93 S6        29.87S WCI  24
MASON CITY     PTCLDY    34  32  92 SW15      29.84S WCI  24
FOREST CITY *  MOCLDY    32  32 100 SW7       29.82F FOG     WCI  26
WEBSTER CITY * CLEAR     32  32 100 SW9       29.85S FOG     WCI  24
IOWA FALLS *     N/A     32  32  97 S8        29.88F FOG     WCI  25
$$

IAZ007>011-017>019-026>030-037>042-050>054-066-050300-
   NORTHEAST IOWA

CITY           SKY/WX    TMP DP  RH WIND       PRES   REMARKS
CEDAR RAPIDS   CLOUDY    32  32 100 W9        29.91R WCI  24
CHARLES CITY * CLOUDY    34  34 100 SW13      29.85S WCI  25
CLINTON *      CLOUDY    33  32  96 W10       29.92S WCI  25
DECORAH *      CLOUDY    32  30  93 VRB6G13   29.83S WCI  26
DUBUQUE        CLOUDY    32  31  96 W13       29.87S WCI  22
MONTICELLO *   CLOUDY    34  32  93 W10       29.89S WCI  26
OELWEIN *      CLOUDY    32  32 100 SW10      29.88R WCI  24
WATERLOO       CLOUDY    33  30  88 SW10      29.89R WCI  25
$$

IAZ064-065-067-068-078-050300-
   EAST CENTRAL IOWA

CITY           SKY/WX    TMP DP  RH WIND       PRES   REMARKS
DAVENPORT      CLOUDY    33  31  92 W12       29.92S WCI  24
IOWA CITY      CLOUDY    35  32  88 W7        29.94R WCI  29
MUSCATINE *    CLOUDY    36  32  87 W12       29.95R WCI  27
QUAD CITIES    CLOUDY    34  31  88 SW10      29.93R WCI  26
$$

IAZ062-063-075>077-085>089-095>099-050300-
   SOUTHEAST IOWA

CITY           SKY/WX    TMP DP  RH WIND       PRES   REMARKS
BURLINGTON     CLOUDY    34  33  96 W6        29.96R WCI  29
FAIRFIELD *    CLOUDY    36  32  87 SW9       29.94S WCI  29
FORT MADISON * CLOUDY    34  32  93 W6        29.98R WCI  29
KEOKUK *       CLOUDY    36  32  87 W8        29.98R WCI  29
OSKALOOSA *    CLOUDY    34  32  93 W10       29.93S WCI  26
CENTERVILLE *  CLOUDY    36  32  87 SW12      29.96S WCI  27
OTTUMWA        CLOUDY    36  31  82 SW10      29.93S WCI  28
WASHINGTON *   CLOUDY    34  32  93 W9        29.95S WCI  26
$$

ABBREVIATIONS USED IN REMARKS
   TC - TEMPERATURES IN CELSIUS
  WCI - WIND CHILL INDEX
   HX - HEAT INDEX
  VSB - VISIBILITY
$$





USA.gov is the U.S. government's official web portal to all federal, state and local government web resources and services.